Regional Weather Roundup
Issued by NWS

Home | Current Version | Previous Version | Graphics & Text | Print | Product List | Glossary Off
Versions: 1 2 3 4 5 6 7 8 9 10 11 12 13 14 15 16 17 18 19 20 21 22 23 24 25 26 27 28 29 30 31 32 33 34 35 36 37 38 39 40 41 42 43 44 45 46 47 48 49 50

000
ASUS43 KTOP 161008
RWRKS

WEATHER ROUNDUP FOR KANSAS
NATIONAL WEATHER SERVICE GOODLAND KS
500 AM CDT WED APR 16 2014

NOTE:  "FAIR" INDICATES FEW OR NO CLOUDS BELOW 12,000 FEET WITH NO
SIGNIFICANT WEATHER AND/OR OBSTRUCTIONS TO VISIBILITY.

KSZ001>006-013>018-027>032-041>047-161100-
NORTHWEST KANSAS

CITY           SKY/WX    TMP DP  RH WIND       PRES   REMARKS
GOODLAND       CLEAR     43  28  55 NW17      29.66R
HAYS           CLEAR     45  18  33 S14       29.69F
HILL CITY      PTCLDY    49  15  25 S17G26    29.62F
RUSSELL        CLEAR     48  16  27 S28G38    29.67F
$$

KSZ061>065-074>080-084>089-161100-
SOUTHWEST KANSAS

CITY           SKY/WX    TMP DP  RH WIND       PRES   REMARKS
DODGE CITY     CLEAR     45  14  28 S23       29.70F
ELKHART          N/A     43  17  35 SW10        N/A
GARDEN CITY    CLEAR     41  19  41 S16       29.65F
GREAT BEND     CLEAR     45  16  31 S23G30    29.72F
LIBERAL        CLEAR     48  14  25 S20G29    29.71S
PRATT          CLEAR     45  19  36 S22G31    29.77S
$$

KSZ066>073-081>083-090>101-161100-
SOUTHEAST KANSAS

CITY           SKY/WX    TMP DP  RH WIND       PRES   REMARKS
CHANUTE        CLEAR     43  29  57 S14       29.98F
COFFEYVILLE    PTCLDY    45  29  53 S12       30.00S
HUTCHINSON     CLEAR     47  22  37 S21G29    29.81F
MEDICINE LODGE   N/A     48  21  34 S13G23    29.81F
NEWTON         CLEAR     46  19  34 S17       29.88S
PARSONS        PTCLDY    46  27  47 S10       30.00F
WICHITA INTL   PTCLDY    47  23  38 S22G35    29.86F
WICHITA JABRA  CLEAR     47  24  40 S20G28    29.87F
WICHITA MCCONL CLEAR     48  22  35 SE24G33   29.88F
WINFIELD       CLEAR     48  24  39 S18       29.93F
$$

KSZ007>012-019>026-033>040-048>060-102>105-161100-
NORTHEAST KANSAS

CITY           SKY/WX    TMP DP  RH WIND       PRES   REMARKS
CONCORDIA      CLEAR     49  19  30 S25G39    29.72F
EMPORIA        CLEAR     44  28  53 S20       29.89F
LAWRENCE       CLEAR     44  29  55 SE13      29.93F
MANHATTAN      CLEAR     48  25  40 S20G28    29.82F
OLATHE IND     CLEAR     43  26  51 S16       29.95F
OLATHE EXE     CLEAR     41  26  55 S16       29.95F
SALINA         CLEAR     50  20  30 S28G35    29.77F
TOPEKA BILLARD CLEAR     47  27  45 S13       29.90F
TOPEKA FORBES  CLEAR     45  27  49 S20       29.89F
$$



USA.gov is the U.S. government's official web portal to all federal, state and local government web resources and services.